Content
SEND FEEDBACK

Daily
Averages
Monthly
Summary
United States of America

JENNINGS, LOUISIANA


Home > North America > United States > Louisiana
Elevation: 25 feet     Latitude: 30 14N     Longitude: 092 40W

WEATHER
 
SELECT A DAY
Number of Records: 125,543;   Date Range: 1/3/95 - 9/30/14
 
SHARE

PRINT THIS DATA

[ ← Previous Day ]
WEATHER ALMANAC - JULY 2, 2014
[ Next Day → ]
[ °C ]   °F
Weather ElementAverageHighLow
Temperature81.2 °F93.2 °F (3:48 pm)75.2 °F (6:00 am)
Dewpoint71.6 °F75.2 °F (2:15 am)66.2 °F (12:45 pm)
Humidity74.1 %94 % (6:00 am)46 % (12:45 pm)
Barometer30.03 in30.07 in (10:15 pm)30.00 in (1:55 am)
Wind Speed2.7 mph12.7 mph (6:45 pm)
Wind Gust20.7 mph (6:45 pm)
Weather ElementAverage
Visibility9.7 mi
Wind DirectionESE (100.8 °)

Weather ElementTotal
Precipitation---
Cooling Degree Days19.2 (Base 65)
Growing Degree Days34.2 (Base 50)
Averaged from 37 records on July 2, 2014
WEATHER CONDITIONS BREAKOUT
WIND DIRECTION BREAKOUT
WEATHER BY HOUR - JULY 2, 2014
[ °C ]   °F
Local TimeTemperatureDewpointHumidityBarometerVisibilityWind DirectionWind SpeedGust SpeedPrecipitationEventsConditions
12:35 AM80.8 °F74.5 °F81 %30.01 in10.0 miWSW (240°)3.5 mphClear
12:55 AM81.0 °F74.7 °F81 %30.01 in10.0 miSW (220°)5.8 mphScattered Clouds
1:15 AM80.1 °F74.5 °F83 %30.01 in10.0 miSSW (210°)4.6 mphClear
1:35 AM80.1 °F74.7 °F83 %30.01 in10.0 miSW (230°)3.5 mphClear
1:55 AM80.4 °F74.8 °F83 %30.00 in10.0 miSW (230°)4.6 mphClear
2:15 AM80.6 °F75.2 °F84 %30.00 in10.0 miWSW (250°)3.5 mphClear
2:35 AM80.2 °F75.2 °F85 %30.00 in10.0 miWSW (250°)3.5 mphClear
2:55 AM80.1 °F75.2 °F85 %30.00 in10.0 miWSW (250°)3.5 mphClear
3:15 AM80.1 °F75.2 °F85 %30.00 in10.0 miSW (230°)3.5 mphClear
3:35 AM79.5 °F74.7 °F85 %30.01 in10.0 miNW (310°)3.5 mphScattered Clouds
3:55 AM77.5 °F74.3 °F90 %30.00 in10.0 miCalmClear
4:15 AM77.5 °F74.3 °F90 %30.00 in10.0 miCalmClear
6:00 AM75.2 °F73.4 °F94 %30.01 in10.0 miCalmClear
6:55 AM75.2 °F73.4 °F94 %30.03 in6.0 miCalmClear
7:50 AM78.8 °F75.2 °F89 %30.03 in6.0 miCalmClear
8:51 AM80.6 °F75.2 °F84 %30.04 in7.0 miVariable4.6 mphScattered Clouds
9:51 AM84.2 °F73.4 °F70 %30.04 in10.0 miVariable3.5 mphScattered Clouds
10:50 AM86.0 °F71.6 °F62 %30.05 in10.0 miNNW (340°)6.9 mphScattered Clouds
11:45 AM87.8 °F71.6 °F58 %30.05 in10.0 miCalmScattered Clouds
12:45 PM89.6 °F66.2 °F46 %30.06 in10.0 miCalmScattered Clouds
1:52 PM91.4 °F69.8 °F49 %30.06 in10.0 miCalmScattered Clouds
2:45 PM91.4 °F68.0 °F46 %30.05 in10.0 miCalmScattered Clouds
3:48 PM93.2 °F69.8 °F46 %30.02 in10.0 miSSE (160°)4.6 mphScattered Clouds
4:45 PM91.4 °F71.6 °F52 %30.02 in10.0 miSSW (200°)6.9 mphScattered Clouds
5:48 PM91.4 °F69.8 °F49 %30.00 in10.0 miCalmScattered Clouds
6:45 PM84.2 °F69.8 °F62 %30.02 in10.0 miNorth (350°)12.7 mph20.7 mphScattered Clouds
8:45 PM78.8 °F69.8 °F74 %30.03 in10.0 miCalmClear
9:15 PM78.3 °F68.7 °F72 %30.04 in10.0 miNE (50°)4.6 mphClear
9:35 PM77.0 °F68.9 °F76 %30.04 in10.0 miEast (100°)3.5 mphClear
9:45 PM77.0 °F69.8 °F78 %30.05 in10.0 miCalmClear
9:55 PM77.0 °F69.4 °F77 %30.06 in10.0 miCalmClear
10:15 PM77.4 °F67.3 °F71 %30.07 in10.0 miENE (60°)6.9 mphClear
10:35 PM77.2 °F67.3 °F71 %30.07 in10.0 miNE (50°)4.6 mphClear
10:55 PM76.5 °F68.2 °F75 %30.07 in10.0 miCalmClear
11:15 PM76.1 °F68.2 °F76 %30.07 in10.0 miCalmClear
11:35 PM76.1 °F68.0 °F76 %30.06 in10.0 miCalmClear
11:55 PM75.2 °F68.2 °F79 %30.06 in10.0 miCalmClear
Hourly data recorded from KCWF, located miles away from Jennings, Louisiana







STORIES FROM OUR PARTNERS